Location: Grandin
(36.0440°N, 81.4159°W)
Time: 08:13:14
(UTC+00:00)

Tiangong - Visible Passes

Search period start: 06 July 2022 00:00
Search period end: 16 July 2022 00:00
Orbit: 380 x 385 km, 41.5° (Epoch: 05 July)

Date Brightness Start Highest point End Pass type
(mag) Time Alt. Az. Time Alt. Az. Time Alt. Az.
06 Jul 1.4 02:14:29 10° WNW 02:17:34 49° SSW 02:18:18 39° SSE visible
07 Jul 1.1 01:14:09 10° WNW 01:17:19 89° NE 01:20:29 10° ESE visible
07 Jul 3.7 02:51:57 10° WSW 02:52:51 13° WSW 02:52:51 13° WSW visible
08 Jul 2.5 01:50:54 10° W 01:53:39 27° SSW 01:55:17 17° SSE visible
10 Jul 3.5 01:27:43 10° WSW 01:29:35 15° SW 01:31:26 10° S visible
